GFSNIL_sfc_30mbdewp_000.txt.gz
Dewpoint
38 38 39 37 36 34 32 31 31 32 34 35 35 35 34 34 34 30 27 26 27 28
33 34 32 31 31 31 30 30 33 36 39 40 40 39 35 31 28 30 29 28 29 29
29 28 29 27 27 28 32 36 38 39 38 39 38 34 31 30 29 28 29 29 30 30
26 27 25 25 27 28 30 32 31 32 33 33 32 30 29 27 28 27 27 27 27 27
27 25 24 26 27 27 27 26 26 27 27 27 27 28 27 26 24 23 22 23 24 24
23 22 26 26 26 25 24 24 25 24 24 26 26 25 25 23 22 22 22 23 24 25
23 24 27 26 26 25 25 25 24 25 27 27 26 24 23 23 24 24 23 24 24 24
31 31 29 27 29 32 28 27 27 26 24 23 23 22 26 25 24 23 23 23 23 23
34 34 34 36 34 32 29 26 22 20 20 20 21 28 26 26 24 23 22 22 22 22
38 37 35 34 33 28 22 20 18 17 18 21 23 24 25 25 23 23 24 23 23 22
36 34 30 25 22 18 17 16 16 18 21 22 22 25 23 24 24 24 24 24 24 24
23 20 19 17 16 16 16 16 16 20 23 24 23 24 22 22 22 22 24 25 25 25
21 19 17 17 16 16 15 17 22 23 22 22 21 22 21 21 22 24 23 23 23 23
21 20 19 16 15 16 18 20 20 19 19 19 20 21 21 21 22 24 23 23 23 23

GFSNIL_sfc_30mbdewp_003.txt.gz
Dewpoint
32 34 35 36 35 36 32 32 34 37 38 39 39 40 40 40 38 37 35 33 29 27
31 31 32 31 33 32 32 35 39 39 39 39 39 39 39 37 36 33 31 30 29 29
31 30 31 31 30 30 34 38 39 38 34 33 35 37 37 36 32 31 30 30 29 29
32 29 29 29 30 32 35 33 31 30 30 34 36 35 34 31 29 28 27 26 24 24
30 29 26 28 29 29 26 26 26 27 27 28 28 28 28 26 25 24 22 22 23 23
26 25 26 27 27 26 24 24 24 24 23 25 27 26 25 24 23 23 24 24 25 25
22 24 26 26 29 32 31 27 26 25 26 27 25 23 23 23 24 23 23 23 22 22
30 30 31 36 36 33 30 28 29 27 23 22 22 22 25 24 23 22 21 22 23 22
37 37 37 36 35 34 35 34 26 21 20 20 22 29 26 26 25 23 22 21 21 22
37 38 37 36 36 36 27 22 19 19 21 23 24 25 26 24 24 23 23 23 23 23
27 27 27 23 21 19 18 18 18 20 23 23 24 25 24 24 23 22 23 23 23 24
23 21 20 19 18 17 16 17 20 24 23 21 21 22 21 21 21 21 22 23 23 23
21 21 20 18 16 17 18 21 22 20 19 20 20 21 21 21 22 23 22 22 21 22
22 22 19 17 17 19 20 19 17 17 18 19 20 21 21 21 22 22 22 22 22 24

GFSNIL_sfc_30mbdewp_006.txt.gz
Dewpoint
34 33 33 33 33 33 34 34 38 38 38 38 39 39 38 38 39 39 38 36 35 35
34 34 33 32 32 33 33 38 38 38 38 38 38 38 38 36 35 35 35 34 35 34
34 34 33 32 31 32 35 38 39 37 35 34 32 35 37 38 38 37 36 34 33 31
34 33 31 30 31 32 36 35 31 31 31 31 34 35 35 35 33 30 28 27 25 24
31 27 28 28 30 31 27 26 25 25 26 27 27 28 28 27 26 24 23 22 23 24
26 24 27 28 30 31 31 28 27 26 27 28 27 27 25 24 23 23 24 24 24 24
30 28 33 36 35 34 33 31 31 31 29 28 25 23 23 23 24 23 22 22 21 21
36 36 36 36 36 36 35 35 36 35 29 23 22 21 24 24 23 22 22 21 22 21
38 37 36 36 36 35 35 35 37 32 21 21 23 27 26 27 25 24 23 22 21 21
29 30 31 33 34 32 26 22 19 19 22 23 24 26 25 24 25 24 23 22 22 22
28 23 22 21 19 19 18 17 18 21 24 22 20 22 21 22 22 22 22 22 22 22
23 22 21 20 18 17 17 18 22 23 20 19 19 21 21 21 21 21 21 22 23 23
22 22 21 18 17 18 19 21 19 18 19 19 19 20 21 21 21 22 23 22 22 21
22 22 19 18 19 19 19 18 17 17 19 19 19 20 21 20 21 23 22 22 22 23

GFSNIL_sfc_30mbdewp_009.txt.gz
Dewpoint
38 37 35 35 35 35 34 35 39 39 39 39 39 39 39 39 38 37 37 36 35 34
37 36 35 36 34 33 35 37 39 39 39 39 39 39 38 38 37 35 35 35 35 35
36 36 34 31 32 33 35 39 40 36 34 33 33 32 35 35 36 36 35 34 35 34
35 31 28 30 32 34 37 34 31 29 30 31 32 31 32 33 32 30 29 29 28 26
30 27 29 31 31 32 30 29 29 30 33 34 33 30 29 28 26 24 22 21 23 21
31 30 35 36 36 36 35 34 35 35 37 35 30 26 25 24 24 24 23 24 24 24
34 35 36 36 36 36 35 34 35 35 34 35 32 25 21 22 23 24 23 24 23 21
37 37 37 33 32 33 32 32 34 34 32 24 23 21 25 25 24 24 23 23 21 20
29 29 29 30 30 31 28 24 22 21 21 23 23 27 28 27 24 23 21 20 20 19
30 26 23 22 21 20 20 20 19 20 23 23 22 21 22 22 20 20 20 19 18 18
26 22 22 21 20 19 19 19 19 22 21 19 17 20 20 21 20 21 20 19 19 19
23 22 21 20 19 19 19 19 20 18 18 17 18 19 20 21 20 20 20 20 21 20
22 21 20 20 19 19 19 18 18 17 18 19 19 19 20 19 19 19 19 20 20 21
21 21 21 19 19 18 17 20 21 21 21 21 19 19 19 18 19 21 21 21 20 23

GFSNIL_sfc_30mbdewp_012.txt.gz
Dewpoint
38 38 35 34 33 31 31 33 36 39 38 38 37 37 39 41 40 38 37 37 36 35
39 36 34 32 32 31 33 34 38 39 38 36 35 34 35 37 36 36 34 35 36 35
36 34 32 32 32 34 35 38 38 36 33 33 35 37 37 35 33 34 35 32 30 28
34 32 32 32 32 33 34 31 30 30 32 36 38 38 37 34 30 27 25 24 22 20
33 32 32 33 33 34 34 33 32 36 37 38 38 36 32 30 27 23 22 21 20 18
33 33 33 34 34 34 34 34 37 37 36 37 35 33 30 28 25 23 22 20 19 19
34 35 35 32 31 30 30 31 31 30 29 27 24 22 21 21 21 21 20 21 22 22
31 29 28 27 26 25 25 22 21 20 20 21 21 20 25 23 21 20 20 20 20 20
27 27 25 24 22 20 17 18 19 19 19 20 19 23 22 23 19 18 17 17 17 17
27 26 23 20 16 16 17 19 19 19 20 20 19 21 21 21 18 17 18 18 17 16
25 23 19 16 16 17 18 18 18 19 19 18 17 20 20 20 19 19 19 18 17 16
23 21 16 16 17 18 18 18 18 18 18 18 19 20 20 20 19 18 18 18 19 20
22 19 16 18 19 20 18 17 19 21 21 21 20 20 19 18 18 20 21 20 21 22
22 18 18 19 20 20 19 20 24 25 23 23 21 18 18 18 19 21 21 20 21 21

GFSNIL_sfc_30mbdewp_015.txt.gz
Dewpoint
39 37 36 35 33 32 32 34 34 35 38 39 40 39 39 39 39 38 37 36 36 36
37 37 35 33 32 33 33 33 36 39 39 37 38 38 38 37 38 37 37 36 36 34
36 35 32 32 32 32 32 32 32 34 34 37 37 37 37 36 36 36 36 37 36 36
33 33 31 31 31 34 33 33 33 33 35 37 36 36 37 38 36 36 32 29 28 26
29 30 30 32 33 33 34 33 34 37 38 35 35 36 36 35 32 31 30 30 28 26
28 30 32 33 31 29 29 28 28 30 32 31 30 24 21 21 23 22 23 23 21 20
28 29 30 29 28 25 23 21 19 18 18 19 18 19 18 21 20 20 19 19 19 19
27 27 28 27 24 22 19 17 16 17 17 18 18 18 22 21 19 19 18 18 18 18
26 28 28 24 21 16 15 16 18 18 18 18 17 23 23 22 19 17 17 17 17 17
28 28 25 22 16 15 16 17 18 17 18 17 18 21 22 22 20 18 18 18 18 17
27 26 22 20 15 16 16 17 17 17 18 19 19 23 22 21 19 18 18 18 17 17
26 26 21 18 16 17 17 17 16 18 21 21 22 22 23 20 19 18 18 18 20 20
23 23 22 18 18 18 17 16 19 22 22 23 22 24 21 21 19 19 20 19 18 21
31 27 21 18 18 17 17 20 26 27 25 23 24 21 20 20 19 18 22 20 21 22

GFSNIL_sfc_30mbdewp_021.txt.gz
Dewpoint
39 39 36 35 34 34 36 36 36 36 39 39 40 38 38 38 37 37 37 37 38 37
37 37 35 34 36 36 35 34 33 35 37 38 38 38 37 37 37 36 37 38 38 39
32 33 34 35 34 34 34 34 32 33 36 37 37 37 36 35 36 35 36 36 36 35
30 31 35 35 34 33 33 33 32 33 31 32 34 34 34 33 33 33 33 32 29 30
30 31 33 33 33 33 32 30 30 27 24 24 23 25 25 26 25 23 22 22 22 23
28 30 31 31 32 31 30 28 24 22 22 23 23 23 24 25 24 23 22 22 21 20
28 29 30 30 30 30 28 25 22 21 22 23 23 23 23 22 22 22 22 23 22 21
30 31 30 30 32 30 27 25 21 21 22 23 23 22 22 23 22 22 22 21 21 21
33 32 33 34 32 33 26 21 21 21 22 23 22 25 25 25 23 21 20 19 19 21
32 33 35 35 36 32 22 21 21 22 24 23 24 26 26 25 24 22 20 19 20 18
33 33 34 35 34 28 23 20 22 24 24 24 24 25 26 27 27 24 22 21 20 19
35 35 35 34 33 31 25 24 25 26 26 25 25 26 28 27 26 24 23 22 21 20
32 35 35 33 31 29 25 26 26 26 26 26 24 25 22 26 25 22 21 21 20 20
34 34 35 34 31 26 24 26 25 24 24 23 23 20 20 21 20 20 21 19 18 20

GFSNIL_sfc_30mbdewp_024.txt.gz
Dewpoint
39 37 35 35 34 36 34 34 34 35 38 39 39 38 38 37 36 37 36 36 36 37
37 36 35 35 36 35 34 34 33 33 35 38 38 38 37 36 35 35 35 34 36 36
31 34 35 36 35 34 33 33 32 31 33 33 36 36 36 35 34 33 33 35 29 29
30 31 35 35 34 34 33 33 32 31 31 26 26 26 28 29 29 27 24 23 23 22
29 29 34 34 34 34 32 32 29 29 23 23 23 24 24 25 24 23 22 22 22 21
28 28 30 32 33 34 33 32 32 24 22 22 24 24 24 23 23 22 22 22 22 21
31 32 32 31 32 33 36 35 32 23 22 23 24 23 22 22 22 22 22 22 22 21
31 31 30 31 33 36 35 34 31 24 23 24 23 22 23 23 23 22 21 21 21 19
32 33 34 35 36 35 36 35 26 25 24 24 23 25 25 25 24 23 22 21 20 20
33 32 32 34 36 35 33 32 31 25 24 24 24 26 27 28 27 25 24 22 22 21
33 33 35 34 34 33 33 31 25 25 25 24 23 27 28 27 26 25 24 23 22 20
31 32 35 34 33 33 31 25 26 26 24 24 24 23 22 26 23 22 20 21 21 19
32 32 33 34 32 31 27 26 25 24 24 23 20 19 20 19 22 19 19 20 18 18
28 29 30 32 32 28 26 25 23 20 21 20 20 18 17 17 18 18 20 18 18 19

GFSNIL_sfc_30mbdewp_027.txt.gz
Dewpoint
37 36 35 34 34 33 34 34 34 32 37 38 38 39 38 37 36 35 34 34 33 34
38 37 35 35 35 35 36 34 34 32 35 36 38 38 37 36 35 34 34 33 34 32
33 34 36 36 35 35 35 34 34 32 33 34 33 35 34 33 32 32 31 31 24 23
32 31 32 35 35 35 35 34 33 33 32 30 26 26 26 26 27 25 23 23 23 22
30 30 30 32 34 35 34 34 33 33 34 34 27 24 24 23 25 23 21 22 22 22
30 30 30 31 31 33 34 34 34 34 35 31 25 24 25 25 23 22 22 22 22 21
30 31 31 31 31 32 33 35 35 35 29 27 27 25 23 22 22 23 22 22 22 21
32 32 32 32 33 35 36 35 36 34 30 28 25 22 23 23 23 23 23 23 23 21
31 32 32 33 34 36 36 32 34 33 30 24 23 25 26 28 27 25 24 24 23 22
33 32 33 34 34 33 32 32 32 30 25 24 24 27 28 27 25 25 24 23 22 20
31 31 32 34 32 33 32 32 28 25 24 23 24 25 23 26 22 21 21 19 19 20
29 31 31 32 33 32 31 27 26 25 24 22 19 20 20 20 22 19 18 19 19 19
27 28 28 29 32 32 30 26 25 23 22 21 18 19 18 18 18 17 19 19 18 19
26 26 26 28 31 28 26 24 22 20 21 20 19 17 18 17 17 18 19 18 18 20

GFSNIL_sfc_30mbdewp_030.txt.gz
Dewpoint
38 37 35 34 34 34 33 34 35 34 33 36 37 38 38 37 36 35 34 32 32 32
37 37 37 36 36 35 35 35 35 35 32 35 36 37 38 37 36 34 33 32 32 32
34 33 33 33 34 35 36 35 35 34 33 33 33 32 33 34 32 31 30 31 26 23
31 30 31 31 32 33 35 35 34 34 33 33 34 33 29 28 27 27 25 23 23 22
30 30 29 30 31 32 33 34 34 34 33 35 35 32 26 26 26 24 22 21 22 22
29 31 30 31 31 31 32 34 34 34 35 34 29 27 27 26 23 21 22 23 22 22
31 31 30 30 31 33 35 35 35 35 36 34 29 27 24 22 23 23 23 23 23 23
31 31 31 31 33 34 35 35 33 31 31 29 25 23 24 26 27 26 25 24 24 24
31 31 31 32 34 33 33 33 34 32 29 24 24 27 28 28 26 24 24 22 22 22
30 31 30 32 33 31 32 31 31 27 24 22 25 27 24 26 23 21 20 18 18 17
28 29 30 31 33 31 31 31 28 25 23 23 23 21 20 23 22 20 19 18 18 18
28 27 28 27 28 31 31 30 26 24 23 19 18 20 19 19 19 19 18 18 18 19
27 26 26 25 26 30 32 27 25 22 22 20 18 18 18 18 18 17 18 19 19 19
26 26 25 23 27 28 26 24 22 20 21 19 18 18 18 19 19 19 20 19 18 19

GFSNIL_sfc_30mbdewp_033.txt.gz
Dewpoint
41 40 39 38 38 37 37 37 38 38 37 36 37 38 39 37 36 37 37 35 33 33
39 39 38 37 37 36 37 35 36 37 37 36 36 36 36 35 34 34 34 33 32 31
35 35 34 34 34 33 33 34 34 34 35 36 35 35 34 33 31 30 31 30 30 28
32 32 32 31 32 32 33 32 33 34 35 35 34 35 34 33 29 27 27 26 25 24
31 31 31 30 30 30 30 32 33 35 35 35 36 36 31 27 28 27 25 23 23 23
31 31 30 29 30 31 32 34 36 36 36 33 30 29 29 28 26 23 23 24 23 22
32 31 30 30 31 33 34 34 34 35 35 34 31 28 26 23 24 25 25 24 23 22
32 32 31 31 32 34 33 32 33 32 32 28 25 24 27 27 25 23 20 19 17 17
31 31 30 30 32 33 32 32 33 32 27 25 25 28 25 25 22 19 16 14 14 14
29 29 29 29 31 30 32 31 32 29 25 24 25 23 21 25 20 17 15 14 14 14
28 28 28 28 27 28 32 32 31 26 24 22 19 21 20 20 17 17 15 15 15 15
28 28 26 26 26 27 30 32 31 26 23 20 18 19 19 19 19 18 17 17 16 16
28 27 26 26 25 28 31 32 28 24 22 21 19 18 19 19 20 19 18 17 15 16
27 27 27 26 25 25 26 27 26 24 23 21 20 19 19 19 20 19 17 16 14 14

GFSNIL_sfc_30mbdewp_036.txt.gz
Dewpoint
37 35 34 35 37 35 34 33 32 30 30 29 30 32 35 35 34 32 32 33 32 29
37 36 35 35 33 30 29 26 25 27 26 26 28 31 33 34 33 31 29 30 31 26
35 33 30 29 28 27 26 25 26 26 26 28 29 31 33 33 34 32 29 29 27 25
29 28 27 26 26 26 27 27 26 27 29 29 30 33 36 37 36 29 27 27 26 24
25 26 26 26 26 28 28 28 29 31 30 30 32 32 30 30 30 28 27 25 23 22
26 26 25 26 28 28 28 29 30 30 31 31 32 32 31 29 26 25 24 24 23 22
26 27 27 28 29 28 29 29 29 30 31 31 29 28 25 24 25 24 22 22 21 19
28 29 28 29 28 28 30 30 30 30 30 29 25 24 27 24 23 22 19 17 15 14
29 28 28 28 27 28 29 29 30 29 28 27 24 27 24 24 21 19 16 14 13 14
27 27 26 26 26 26 27 28 30 29 29 26 26 22 22 21 18 17 16 15 14 14
26 25 25 25 25 26 27 28 29 30 28 26 24 21 20 20 18 19 18 16 16 15
24 25 25 25 26 26 25 26 29 30 27 26 24 19 19 19 20 20 19 17 16 15
24 25 25 26 26 26 26 25 29 28 27 25 23 20 19 19 20 21 19 17 16 15
23 25 26 27 26 25 24 25 27 28 26 25 24 22 19 19 21 20 19 17 16 15

GFSNIL_sfc_30mbdewp_039.txt.gz
Dewpoint
38 35 34 32 33 32 31 30 29 27 27 27 26 26 28 29 32 32 36 34 30 28
37 35 32 33 32 29 29 26 24 26 26 25 26 27 28 29 30 33 34 34 30 30
35 33 31 29 28 28 27 26 25 25 25 27 28 28 28 31 33 33 34 31 28 28
32 30 29 27 27 26 27 26 24 25 27 28 27 32 33 32 31 30 30 29 28 27
30 26 27 27 25 26 27 26 25 27 28 28 30 30 30 30 30 29 28 26 23 20
26 27 26 24 25 27 26 26 27 27 27 29 29 30 30 29 28 25 23 21 20 19
25 26 24 25 27 27 26 27 27 27 28 28 29 26 26 22 24 22 19 20 19 18
24 26 26 27 28 26 27 28 28 27 27 28 26 23 26 23 22 20 18 18 17 15
23 25 26 27 27 25 26 26 26 27 28 28 25 26 23 23 22 20 17 16 16 15
25 25 24 23 24 24 25 26 27 29 29 27 27 24 22 21 20 20 18 18 17 15
24 23 22 22 23 25 26 26 25 28 30 28 26 23 21 21 20 20 19 19 17 16
21 21 22 22 23 26 25 25 25 28 29 28 28 23 21 19 20 21 20 19 17 17
21 21 21 23 24 26 25 24 24 26 29 28 27 23 21 20 21 22 21 19 17 17
21 21 23 24 25 25 24 24 26 28 28 27 27 26 23 21 21 21 21 19 18 17

GFSNIL_sfc_30mbdewp_042.txt.gz
Dewpoint
41 39 38 39 36 34 33 33 31 30 31 31 30 31 32 33 33 33 36 36 37 36
39 37 36 35 34 33 31 29 30 30 29 29 31 32 32 33 34 35 35 36 36 33
39 36 34 33 31 30 29 29 29 28 28 30 31 32 34 35 35 33 34 33 33 32
36 35 33 31 29 28 28 28 27 27 28 29 31 32 32 32 31 31 31 31 29 28
35 34 31 29 28 27 28 28 27 28 28 29 29 30 31 32 31 30 29 28 25 24
35 29 28 28 26 27 28 28 28 28 29 29 30 28 30 30 29 28 26 25 22 22
29 28 28 26 27 28 29 28 29 29 29 29 28 29 28 27 26 24 22 22 21 20
26 28 27 27 29 29 29 28 29 30 29 29 29 27 27 25 24 24 22 21 20 18
24 26 26 27 29 29 28 28 29 29 30 29 28 26 24 23 22 23 22 21 20 19
23 26 26 26 24 25 26 29 29 29 30 30 30 26 24 21 21 22 23 21 21 19
23 24 25 24 24 25 27 28 28 28 30 31 30 27 24 21 21 23 22 22 21 19
22 22 23 23 25 26 27 28 27 27 29 30 30 26 23 21 22 23 23 22 22 20
24 23 22 23 25 27 28 27 27 28 29 30 30 27 24 22 23 23 23 23 21 20
23 23 23 25 26 26 26 27 27 27 29 30 30 30 25 24 23 22 23 22 21 22

GFSNIL_sfc_30mbdewp_045.txt.gz
Dewpoint
40 38 38 39 35 35 33 32 31 30 30 29 30 31 31 32 34 35 35 36 36 36
39 39 36 35 34 33 31 31 30 29 28 29 30 32 35 34 34 33 34 35 34 32
38 36 35 34 33 32 30 29 29 27 28 29 32 32 32 33 32 32 32 32 31 31
36 35 35 34 32 30 30 29 27 27 28 29 31 31 31 30 32 31 30 30 29 28
36 36 33 31 30 30 29 29 27 28 28 30 30 30 29 30 31 31 30 28 26 24
36 35 33 32 31 30 29 28 28 28 29 30 30 28 29 30 30 28 25 23 22 21
36 34 30 30 29 30 29 28 28 30 30 31 29 28 30 28 25 24 23 23 22 22
35 31 29 29 30 31 29 28 29 29 31 31 29 29 27 25 24 23 23 22 22 20
29 29 32 30 29 29 29 29 30 30 30 30 29 27 25 24 22 22 22 21 23 21
29 29 28 27 26 25 26 28 29 29 29 30 30 28 26 23 21 21 22 23 22 21
27 26 26 26 25 26 28 29 28 28 28 31 31 29 27 24 21 21 23 23 22 21
27 26 26 26 28 28 28 29 28 27 28 31 30 30 27 23 21 22 23 24 23 23
28 27 28 28 28 28 28 27 28 28 29 30 30 28 27 25 22 22 23 23 23 21
29 28 28 27 27 25 26 26 27 28 28 28 29 29 29 27 23 23 22 23 22 22

GFSNIL_sfc_30mbdewp_051.txt.gz
Dewpoint
50 48 47 46 44 40 36 35 35 36 35 32 32 33 35 34 33 32 32 33 34 34
49 47 46 44 41 38 37 36 37 34 33 33 34 34 33 32 31 31 33 33 32 31
46 43 41 40 39 37 39 38 36 35 36 32 34 33 32 31 32 31 31 31 30 30
42 40 40 39 37 37 38 38 40 36 31 31 32 32 31 30 29 29 30 30 29 28
41 40 38 36 35 38 43 40 34 34 30 30 31 31 30 29 29 29 29 30 27 23
40 39 37 37 40 43 37 35 33 30 28 29 30 31 30 29 29 30 30 29 23 21
40 40 40 42 39 36 34 30 29 29 29 30 31 31 31 29 30 31 30 25 24 22
42 40 38 35 33 31 30 29 29 29 30 30 32 31 30 30 29 27 26 24 24 23
36 34 33 33 33 32 30 30 30 30 30 31 30 29 30 30 28 26 24 23 23 22
35 34 32 30 29 29 29 34 33 30 30 29 30 30 30 30 27 25 24 23 22 22
31 30 30 30 33 36 37 33 30 28 29 30 29 30 31 31 28 24 23 23 23 23
30 31 33 35 37 36 31 29 28 28 28 28 28 29 31 31 29 25 23 23 24 28
32 36 38 37 33 30 29 28 27 26 27 27 27 29 31 32 29 26 25 24 26 26
38 34 31 29 28 28 28 27 27 27 27 27 27 28 30 31 29 27 26 25 25 25

GFSNIL_sfc_30mbdewp_054.txt.gz
Dewpoint
52 49 47 46 45 43 40 37 36 36 35 35 34 34 35 34 33 32 32 32 33 33
53 50 47 46 44 40 37 37 37 36 35 38 40 36 35 33 31 31 31 32 33 32
52 50 47 44 41 38 39 38 37 38 40 41 37 34 33 32 31 31 31 32 31 30
50 47 44 42 40 40 39 39 40 41 41 36 34 34 33 31 30 31 30 31 30 29
46 44 43 41 40 40 41 41 43 40 34 32 33 32 32 31 30 30 29 29 30 28
44 43 41 40 40 42 43 42 37 35 34 32 31 32 32 32 31 30 29 29 29 27
43 42 40 40 43 42 39 36 35 33 31 32 31 32 32 31 30 30 30 30 29 25
43 40 41 42 38 37 37 34 31 32 32 31 32 32 31 31 30 29 29 28 26 25
41 40 37 35 36 35 32 31 30 34 33 33 31 31 31 31 30 29 27 26 25 24
37 35 34 33 31 30 33 38 36 37 34 30 31 31 31 30 30 28 27 25 24 23
31 31 32 35 37 38 38 38 37 31 30 29 29 29 30 30 31 28 26 25 24 23
33 35 36 37 38 39 37 32 30 29 28 27 27 28 29 29 30 29 27 25 24 24
39 40 39 38 35 32 30 29 29 28 27 27 27 28 28 30 30 29 28 27 25 25
37 33 32 30 29 28 28 28 27 27 27 27 27 27 28 29 31 29 28 27 26 26

GFSNIL_sfc_30mbdewp_057.txt.gz
Dewpoint
54 53 52 50 48 48 47 44 42 40 38 35 36 36 37 39 36 36 36 35 34 31
55 54 52 50 49 48 46 42 40 38 36 37 39 41 39 36 34 34 34 34 33 32
55 54 52 50 48 45 42 39 38 37 38 42 43 40 36 34 33 33 33 32 33 32
55 55 52 49 45 43 41 41 38 40 42 43 39 36 35 34 33 33 32 32 32 31
55 52 50 47 44 43 41 41 41 42 42 38 37 36 34 33 32 32 32 31 31 31
50 49 47 44 43 43 43 43 43 41 38 37 36 37 35 33 33 32 32 31 31 30
47 46 45 44 44 44 43 41 39 38 37 38 37 35 33 32 33 33 32 32 32 31
45 44 43 43 42 40 39 38 39 38 37 36 34 35 34 32 32 32 32 32 32 31
42 41 39 39 39 39 39 37 35 34 35 36 35 35 35 32 32 31 31 30 30 29
38 37 37 36 34 33 35 38 38 39 38 37 38 34 31 31 31 31 30 30 29 28
33 33 35 38 39 39 39 40 40 39 37 34 31 30 30 30 30 31 30 30 29 29
37 38 39 38 39 40 40 37 34 32 31 30 30 30 28 29 29 29 29 30 29 28
40 40 39 37 35 33 32 30 29 29 29 29 29 30 29 29 30 31 30 29 30 29
32 31 31 30 30 29 28 29 29 29 29 29 28 28 29 29 30 30 30 29 29 29

GFSNIL_sfc_30mbdewp_060.txt.gz
Dewpoint
57 57 56 55 55 53 51 48 49 47 44 43 42 39 38 38 39 38 37 36 36 31
57 56 55 55 54 53 50 50 49 46 45 41 39 40 40 42 39 37 38 38 35 31
57 57 56 55 54 52 51 52 47 44 39 40 42 43 41 39 37 36 36 34 33 31
56 56 56 56 54 51 50 47 44 41 41 43 44 41 39 37 36 36 34 32 31 30
56 56 55 54 51 50 46 43 42 42 44 43 41 39 38 37 38 35 32 31 31 30
56 55 52 49 45 44 43 43 44 44 43 39 39 38 38 39 37 33 32 30 30 30
50 48 46 45 45 44 44 44 44 41 40 39 39 40 40 36 34 33 30 31 31 30
47 46 45 45 45 44 43 41 40 39 40 41 40 39 38 35 35 32 31 31 31 31
44 43 43 42 42 42 41 40 39 39 38 38 38 38 36 36 37 33 31 30 29 28
42 41 41 39 37 36 36 36 36 38 39 39 39 38 38 37 31 30 30 29 28 27
38 36 37 38 38 38 38 38 40 40 40 39 35 32 31 30 29 27 26 26 27 27
38 38 38 39 39 40 40 40 37 33 31 30 30 30 30 30 28 27 27 27 27 26
38 38 38 36 35 34 31 29 29 27 27 27 27 28 29 29 28 28 28 28 27 27
33 33 31 30 28 27 25 26 28 28 29 29 29 30 30 30 29 28 29 29 29 29

GFSNIL_sfc_30mbdewp_063.txt.gz
Dewpoint
57 57 56 56 57 56 56 56 54 53 49 48 49 49 45 41 40 39 40 39 37 35
58 58 58 58 57 57 57 54 52 50 48 49 50 43 42 41 42 41 40 40 39 36
59 59 58 58 56 56 55 53 50 50 50 47 42 42 43 43 41 39 39 38 36 35
59 58 58 57 56 56 55 53 52 50 44 43 44 45 43 40 39 38 37 37 37 34
57 57 57 57 57 55 53 49 46 43 44 44 44 43 41 39 39 38 38 38 36 34
57 56 54 50 48 46 45 44 44 45 44 44 42 39 39 40 40 41 41 38 35 33
51 49 47 46 45 44 44 44 44 44 41 41 40 40 39 40 41 39 38 37 35 33
47 47 46 45 45 45 45 43 41 41 41 40 40 41 41 40 39 38 37 36 34 33
46 45 45 44 43 42 42 41 40 40 40 40 40 40 40 39 37 37 36 34 31 31
44 43 43 43 41 41 40 40 39 39 39 39 39 39 38 38 37 33 30 29 29 28
41 39 39 39 39 39 38 38 38 39 40 40 39 39 38 33 30 29 28 27 26 27
40 40 39 38 38 39 39 39 40 38 35 31 30 30 29 29 26 26 26 26 25 25
39 38 39 40 39 39 37 31 29 27 26 26 26 31 30 29 29 29 29 27 27 28
37 36 35 32 30 28 26 25 28 29 30 29 28 27 25 25 23 24 24 24 24 25

GFSNIL_sfc_30mbdewp_066.txt.gz
Dewpoint
56 57 55 55 57 57 57 57 57 55 54 53 52 51 51 49 45 44 44 41 39 39
57 57 57 57 58 58 58 58 57 56 53 51 50 51 48 45 43 43 42 41 39 40
58 59 59 59 59 58 58 54 53 51 50 50 48 45 44 45 43 42 40 40 40 39
59 60 60 59 58 58 57 55 53 52 49 47 44 44 44 43 41 39 39 39 38 37
60 60 58 57 57 57 55 54 51 48 45 44 44 45 42 41 40 38 38 38 39 40
58 57 54 52 50 49 48 47 45 45 44 45 43 42 41 40 39 39 39 40 40 40
50 49 48 47 46 46 45 45 45 45 43 42 41 40 40 40 40 41 41 41 40 39
47 46 46 45 45 45 45 44 43 42 42 41 40 40 40 41 41 40 39 39 39 37
46 46 45 44 43 43 42 42 41 41 41 40 41 41 41 40 39 38 37 38 38 37
45 44 44 43 42 41 41 41 41 40 40 40 40 39 39 38 38 38 36 33 31 31
44 43 42 41 41 41 41 39 39 39 39 40 40 39 39 39 37 32 30 30 29 29
41 40 40 40 39 39 39 39 40 40 40 39 32 32 30 29 31 31 30 30 28 27
40 39 39 39 40 40 39 39 38 32 29 26 30 27 25 24 26 26 25 25 24 24
39 40 40 39 39 37 30 30 30 30 31 28 28 27 25 24 23 22 21 21 21 22

GFSNIL_sfc_30mbdewp_069.txt.gz
Dewpoint
53 52 52 50 52 56 57 57 57 56 54 53 53 52 51 50 47 45 45 44 43 42
53 55 53 52 55 56 57 57 56 56 54 52 51 51 49 47 46 45 44 43 42 40
55 55 57 55 57 57 58 57 56 55 53 51 50 48 47 45 44 43 43 42 40 40
56 58 58 58 58 59 58 55 54 52 51 49 47 46 45 44 43 41 40 40 40 40
58 59 59 59 58 57 55 54 53 50 48 47 46 45 44 42 41 40 40 40 38 38
58 59 58 55 54 54 52 51 49 48 46 45 45 43 42 41 41 40 40 39 39 39
50 50 49 49 48 48 47 46 46 45 45 43 42 42 41 41 40 40 40 41 42 41
47 47 47 46 46 45 45 44 44 43 43 42 42 41 40 40 40 40 41 40 39 39
46 45 45 45 44 43 43 43 42 42 41 41 41 40 40 41 41 39 38 37 38 38
45 44 44 43 42 42 42 42 41 41 41 40 40 40 41 40 39 38 37 36 32 31
44 43 42 42 41 41 41 40 40 40 40 39 39 39 39 38 38 36 32 30 28 27
43 42 42 41 40 40 39 39 38 39 39 37 33 34 31 31 30 27 26 25 23 23
41 41 40 39 39 39 39 39 40 39 34 30 27 25 26 26 25 21 20 21 22 22
40 39 39 40 40 39 38 33 31 30 30 28 27 26 25 23 20 19 18 20 20 21

GFSNIL_sfc_30mbdewp_072.txt.gz
Dewpoint
53 51 51 49 50 51 52 55 58 58 57 56 55 53 52 52 50 49 48 48 46 45
51 53 52 51 50 52 55 56 57 57 56 55 54 52 51 50 48 47 46 46 45 44
50 54 54 53 53 54 56 56 56 55 54 53 52 51 50 48 46 46 45 44 43 42
51 52 55 55 56 57 57 57 57 57 54 53 52 50 48 46 45 45 43 42 41 40
56 57 56 57 58 58 56 55 56 54 53 51 49 48 46 45 44 43 42 41 40 40
58 58 58 58 58 55 53 55 53 51 50 48 46 45 44 44 43 42 41 41 40 39
57 56 57 56 55 54 53 50 49 49 47 46 44 43 43 42 41 41 40 40 40 41
50 50 49 49 49 48 48 47 47 45 44 43 43 43 42 42 41 40 40 41 41 40
48 47 47 46 45 45 45 44 44 43 42 42 42 41 41 41 41 41 39 38 37 37
47 46 45 44 44 43 43 43 42 42 41 41 41 40 41 41 40 38 37 33 30 28
45 44 43 43 43 42 42 41 41 41 40 40 40 40 40 38 37 32 29 26 25 23
44 43 42 42 41 40 40 40 40 40 40 38 38 39 38 34 29 26 23 22 22 22
43 42 41 41 40 39 39 39 39 39 34 31 31 32 29 27 23 20 18 19 20 21
41 40 40 40 39 39 38 37 35 32 28 27 27 26 24 22 19 18 16 17 18 20

GFSNIL_sfc_30mbdewp_075.txt.gz
Dewpoint
51 51 51 51 51 51 51 52 55 57 57 58 57 56 55 54 53 51 51 49 48 47
52 51 50 51 51 51 52 52 55 57 57 57 56 55 54 53 52 50 49 49 48 48
52 53 53 52 52 51 52 55 56 56 56 55 55 54 53 51 50 49 48 47 47 45
51 51 53 54 54 53 55 56 56 56 56 55 53 52 51 50 48 48 46 45 45 44
52 51 52 54 55 56 56 57 57 57 57 55 53 52 50 48 47 46 45 44 43 42
54 53 54 55 56 57 57 57 57 56 55 54 52 50 48 47 46 45 44 43 42 41
54 56 56 56 57 57 58 57 54 54 53 50 48 47 46 45 44 43 42 42 41 40
55 55 56 56 56 56 54 52 51 49 47 46 45 45 44 43 42 42 41 41 41 42
52 51 51 50 49 48 47 47 46 45 44 44 44 43 43 42 41 41 41 40 38 33
49 48 47 46 46 45 45 44 43 43 43 42 42 41 41 41 40 39 38 35 31 26
47 45 45 45 44 43 43 42 42 42 41 41 41 41 40 39 36 32 28 26 24 23
45 44 44 43 42 42 41 41 41 41 41 40 40 39 37 33 29 24 22 22 22 21
44 43 43 41 41 41 41 41 40 36 36 37 37 36 33 29 25 21 19 19 19 20
43 42 42 41 40 40 39 37 32 29 29 28 29 28 26 23 21 19 17 16 16 17

GFSNIL_sfc_30mbdewp_078.txt.gz
Dewpoint
50 50 50 50 50 50 50 51 53 54 55 56 56 55 55 54 53 53 52 51 50 48
52 51 50 51 51 51 52 52 52 54 55 56 56 56 55 54 54 53 54 53 51 48
50 52 51 51 51 51 51 52 53 54 55 55 56 55 55 55 54 53 52 51 50 49
50 52 52 52 51 51 52 52 53 54 55 55 55 54 54 54 52 51 50 49 49 48
50 51 52 52 52 52 52 54 54 55 55 55 55 54 53 52 50 50 48 47 47 45
51 51 51 52 52 54 54 54 55 55 55 56 54 53 52 51 50 49 48 46 45 44
52 52 53 53 53 54 54 55 55 56 55 54 53 52 50 49 47 47 46 46 45 43
52 53 54 54 54 55 55 55 56 54 53 51 50 48 48 46 45 44 43 43 42 42
53 54 54 54 54 54 54 53 52 50 50 47 46 45 45 45 43 43 42 39 36 34
52 51 51 50 50 49 48 47 46 45 45 44 43 43 43 43 42 41 38 34 30 28
50 50 48 48 47 45 44 44 43 43 43 42 41 41 40 38 35 33 31 29 27 26
49 47 46 44 43 42 42 41 41 42 41 40 38 37 35 32 28 26 24 23 22 22
46 45 43 42 41 42 42 40 37 36 37 37 35 34 31 28 25 22 20 19 20 21
44 43 42 41 41 40 36 33 32 30 30 30 30 30 29 26 24 21 19 16 15 18

GFSNIL_sfc_30mbdewp_081.txt.gz
Dewpoint
52 52 51 52 52 53 53 53 54 55 56 56 56 56 56 56 56 55 54 53 53 52
51 51 51 51 52 52 53 52 53 54 55 55 56 56 56 56 56 55 55 55 54 52
52 52 51 52 52 52 53 53 53 53 54 54 55 56 56 56 56 56 55 55 54 53
52 52 52 52 52 52 52 52 53 53 54 54 55 56 56 56 55 54 54 52 52 51
51 52 52 51 51 52 52 52 52 52 53 54 55 55 55 55 54 53 52 51 51 51
50 50 51 50 51 52 52 52 53 53 53 53 54 55 55 55 53 52 52 51 50 48
49 49 49 50 51 52 53 53 53 54 54 55 55 55 54 53 52 51 50 49 48 46
50 50 49 50 53 54 54 54 54 54 55 55 55 54 53 52 50 48 46 45 44 44
49 50 51 52 54 55 54 54 55 55 54 53 52 50 50 49 47 45 43 39 38 36
51 50 51 53 54 54 54 53 52 51 50 48 46 45 45 45 44 42 38 35 33 31
53 53 51 51 51 50 48 47 46 45 44 43 41 42 41 39 37 34 32 31 30 29
51 50 49 48 47 45 43 43 42 42 41 38 36 35 34 33 30 28 26 26 26 24
50 48 46 44 42 42 41 38 38 36 36 35 33 32 31 29 27 24 22 21 23 22
45 44 42 42 41 38 35 33 32 31 31 31 31 31 29 27 25 22 19 17 16 20